Вернуться в каталог

COSMOS 2251 DEB

АктивенLEO
NORAD 37320·DEBRIS·🇷🇺 Russia

Запущен Jun 16, 1993 с Plesetsk Cosmodrome

Loading…

Ближайшие Пролёты (ближайшие 24 часа)

TLE

УстаревающийSource: Space-Track

Эпоха: Sep 9, 2026, 02:38 UTC

1 37320U 93036BKL 26252.10996986  .00004732  00000-0  59332-3 0  9992
2 37320  74.0449  45.4209 0043504  62.8581 297.7022 14.81818417701487

Отслеживайте COSMOS 2251 DEB в реальном времени с AllMySat

Download on the App Store